Regional Weather Roundup
Issued by NWS

Home | Current Version | Previous Version | Graphics & Text | Print | Product List | Glossary On
Versions: 1 2 3 4 5 6 7 8 9 10 11 12 13 14 15 16 17 18 19 20 21 22 23 24 25 26 27
000
ASUS45 KSLC 251010
RWRUT

UTAH REGIONAL WEATHER ROUNDUP
NATIONAL WEATHER SERVICE SALT LAKE CITY UT
400 AM MDT SAT MAR 25 2017

UTZ001>011-023>025-251100-

NORTHERN UTAH

CITY           SKY/WX    TMP DP  RH WIND       PRES   REMARKS
BRIGHAM CITY     N/A     50  36  57 N9        30.01F
HILL AFB       MOCLDY    48  33  57 NW8       30.00F
LOGAN          CLOUDY    48  37  65 NW3       30.02F
OGDEN          CLOUDY    47  36  65 NW6       29.99F
SALT LAKE CITY MOCLDY    51  36  56 W7        29.99F
WENDOVER       LGT RAIN  49  38  65 NW15      30.03S
HEBER CITY     PTCLDY    36  28  75 CALM      30.02F

$$

UTZ011>015-024>027-251100-

CENTRAL/NORTHEAST UTAH

CITY           SKY/WX    TMP DP  RH WIND       PRES   REMARKS
PROVO AIRPORT  CLOUDY    47  33  58 SE8       30.03F
MOAB/CANYONLAN CLEAR     40  24  53 CALM      30.05F
DELTA          CLOUDY    46  32  57 S13       30.02F
PRICE          CLOUDY    39  32  76 N5        30.07F
RICHFIELD      CLEAR     43  28  56 NE1       30.07
ROOSEVELT      CLOUDY    36  32  87 CALM      30.09F
VERNAL         CLEAR     36  30  79 NW3       30.07F

$$

UTZ013>016-019>022-027-251100-

SOUTHERN UTAH

CITY           SKY/WX    TMP DP  RH WIND       PRES   REMARKS
BRYCE CANYON   MOCLDY    29  25  85 CALM      30.15F
CEDAR CITY     MOCLDY    42  28  57 SW6       30.05F
MILFORD        CLOUDY    43  28  55 SW12      30.04F
ST GEORGE      MOSUNNY   54  34  46 NE6       30.03F
HANKSVILLE     MOCLDY    41  32  70 CALM      30.07F
KANAB          CLEAR     37  32  81 NE1       30.14F
BLANDING       CLEAR     35  22  59 N8        30.21S WCI  28

$$

REGIONAL REPORTS     COLORADO/ARIZONA

CITY           SKY/WX    TMP DP  RH WIND       PRES   REMARKS
CRAIG, CO      CLOUDY    26  21  81 CALM      30.13F
GRAND JUNCTION CLEAR     43  29  57 E15       30.10F
RIFLE, CO      CLOUDY    32  25  75 SE3       30.15F
MONTROSE, CO   CLOUDY    36  27  69 SE8       30.16F WCI  30
CORTEZ, CO     CLOUDY    29  26  89 CALM      30.15F
COLORADO CITY    N/A     37  36  93 CALM      30.12F
PAGE, AZ       PTCLDY    48  31  51 CALM      30.07F
GRAND CANYON   MOCLDY    29  28  96 CALM      30.17F
KINGMAN, AZ    MOCLDY    50  20  30 SE9       30.06F
FLAGSTAFF, AZ  PTCLDY    29  27  92 CALM      30.18F

$$

REGIONAL REPORTS    NEVADA/IDAHO/WYOMING

CITY           SKY/WX    TMP DP  RH WIND       PRES   REMARKS
LAS VEGAS, NV  CLOUDY    66  30  26 S10       29.96F
ELY, NY        CLOUDY    39  33  79 N12G18    30.07F WCI  32
ELKO, NV       CLOUDY    41  37  86 SW3       30.07S
POCATELLO, ID  LGT RAIN  43  41  93 SW12      30.06S
BURLEY, ID     CLOUDY    42  39  89 SW8       30.06S
FORT BRIDGER,    N/A     38  29  70 SE3       30.08F
EVANSTON, WY   CLOUDY    37  20  50 SW6       30.04F WCI  32
ROCK SPRINGS,  CLOUDY    40  30  67 CALM      30.05F
KEMMERER, WY     N/A     34  27  75 NW9       30.06F WCI  26

$$




USA.gov is the U.S. government's official web portal to all federal, state and local government web resources and services.